Location: Four Corners
(38.2757°N, 122.4608°W)
Time: 10:44:10
(UTC+00:00)

Cosmos 2219 Rocket - Pass Details

Date: 08 December 2019
Orbit: 826 x 848 km, 71.0° (Epoch: 23 January)

Event Time Altitude Azimuth Distance (km) Brightness Sun altitude
Rises 01:14:35 0° 205° (SSW) 3,353 6.2 -5.3°
Reaches altitude 10° 01:17:00 10° 207° (SSW) 2,426 5.5 -5.7°
Maximum altitude 01:22:34 75° 293° (WNW) 863 2.4 -6.7°
Drops below altitude 10° 01:28:12 10° 19° (NNE) 2,455 4.2 -7.7°
Sets 01:30:40 0° 21° (NNE) 3,396 4.9 -8.1°
